Wind_Speed
84 88 94 96 99 100 99 94 91 97 107 106 88 74 68 73 71 68 65 63 59 57 55 50 49 47 46 43 44 45 43 43 49 48 38 25 22 20 21 19 24 23 24 32
78 82 88 94 99 99 97 96 93 100 107 106 87 78 75 70 73 71 65 63 59 56 52 49 49 47 46 41 45 44 43 42 47 48 42 40 21 22 23 25 28 30 28 35
73 79 83 90 94 96 97 101 103 106 103 96 96 86 77 71 72 71 68 65 59 58 53 51 51 48 47 44 47 44 43 45 47 47 44 39 29 23 25 28 30 31 33 36
71 75 80 85 90 94 99 100 102 100 96 93 89 89 83 76 77 71 68 65 58 56 53 52 51 49 49 48 49 43 44 45 47 49 50 41 34 27 26 26 30 31 37 35
67 71 77 82 86 94 96 95 94 97 90 94 93 89 81 76 77 72 68 62 60 59 55 55 55 55 54 51 49 47 46 45 47 48 50 45 36 28 25 28 32 34 36 38
64 66 70 77 84 91 85 80 89 92 91 96 95 80 84 82 81 73 69 65 64 61 59 61 60 55 53 52 49 45 45 49 45 46 53 44 37 34 25 22 21 25 27 30
61 63 67 72 75 76 78 79 87 89 87 94 85 82 84 86 81 79 73 67 63 62 63 61 59 56 54 49 46 45 48 48 48 46 52 44 41 34 29 22 22 23 27 31
58 59 62 64 70 73 75 78 85 89 89 93 92 86 85 89 84 84 79 73 69 71 68 66 64 59 57 55 53 49 47 49 46 44 50 42 42 41 31 26 25 28 30 32
53 55 59 60 63 70 73 76 78 84 88 93 93 88 83 84 85 88 81 75 78 78 75 68 64 60 52 52 51 52 49 45 43 42 44 42 44 41 34 31 30 34 30 30
51 53 53 56 62 66 67 70 76 77 80 95 96 90 84 81 81 85 85 82 79 74 69 66 63 60 55 53 54 52 49 47 47 47 46 40 40 42 34 32 40 33 32 33
47 48 51 54 58 59 62 68 72 75 78 87 94 94 90 82 80 83 87 92 82 75 73 70 64 60 55 51 50 48 50 51 47 47 47 41 43 40 38 35 38 36 33 35
44 45 46 48 50 54 59 63 68 72 76 81 90 90 91 86 82 85 88 87 85 78 74 68 64 61 61 56 54 51 54 53 49 47 44 44 44 43 41 39 36 38 39 39
39 39 40 43 46 50 56 61 65 66 70 80 87 95 95 96 87 86 85 87 81 76 75 74 71 69 60 56 53 51 53 56 50 44 42 44 46 45 41 38 37 36 41 43
36 37 37 40 44 48 53 58 62 66 75 76 81 90 93 91 88 85 80 83 82 79 73 69 67 65 63 60 62 61 57 54 45 43 46 51 47 43 42 40 38 35 38 43
32 34 37 40 43 48 53 58 61 69 76 72 72 76 87 90 88 86 85 83 78 71 73 72 65 61 63 63 62 60 56 46 43 46 50 47 46 45 43 42 42 43 43 45
35 37 38 40 43 48 53 55 57 59 61 68 70 71 80 85 85 87 82 78 73 70 66 64 63 62 60 56 53 53 51 47 45 48 51 53 52 53 52 46 50 50 50 49
35 37 40 43 47 49 52 53 58 61 63 63 62 64 66 74 81 79 76 75 72 69 66 65 63 64 63 59 53 47 48 50 48 51 55 58 61 56 54 51 55 56 57 57
34 36 41 44 47 51 56 59 58 60 65 64 63 62 66 69 73 71 69 68 69 67 66 64 62 63 62 57 53 53 54 51 53 55 57 64 60 55 60 62 62 59 58 61
34 38 42 45 50 54 53 54 57 58 54 51 52 52 53 54 57 49 63 66 66 65 61 61 62 60 55 53 54 56 58 55 55 61 66 65 64 60 59 59 65 67 67 69
40 42 42 43 48 51 53 56 57 55 52 48 45 45 46 45 46 48 48 50 52 53 53 55 55 51 49 50 47 50 53 55 57 58 63 67 70 67 67 69 71 73 75 78
38 42 46 44 46 51 56 58 55 52 51 48 45 41 40 36 31 30 33 33 39 40 40 41 36 32 32 35 37 42 50 56 57 59 63 69 73 78 76 73 73 75 79 83
38 42 44 44 43 44 48 52 51 49 46 47 44 46 48 40 28 29 28 37 38 40 37 35 36 32 33 32 43 53 59 65 67 68 67 67 69 71 72 73 79 83 83 80
46 48 48 44 41 44 49 50 45 44 44 44 51 54 48 48 55 50 47 43 39 33 27 28 31 44 57 51 61 69 72 73 69 67 66 68 67 69 74 80 81 81 83 86
50 49 51 49 49 46 43 42 44 46 51 58 64 58 54 56 56 50 53 51 47 41 42 40 45 58 63 63 63 65 70 75 78 77 72 71 70 77 79 82 85 85 82 81
52 53 52 50 50 51 51 53 57 56 56 62 63 58 57 57 59 56 57 56 55 53 55 57 58 61 64 70 76 80 83 85 85 81 77 78 77 81 83 81 80 77 75 75
47 50 53 48 49 47 55 56 57 55 56 63 65 62 61 61 65 62 65 61 61 61 66 69 72 70 73 79 83 85 86 86 85 83 82 82 79 82 77 75 72 72 74 78
11 29 38 18 27 42 18 51 52 52 59 57 61 64 68 67 71 69 69 67 69 71 75 76 78 80 84 83 88 83 74 76 82 84 86 82 84 81 76 76 79 81 82 84
Wind_Direction
234 232 232 231 231 228 227 227 226 226 226 228 226 225 228 230 237 240 243 245 249 254 260 266 272 273 275 283 288 296 305 314 316 324 326 320 278 251 251 248 243 228 235 251
231 229 229 228 228 228 226 225 223 222 225 226 223 222 225 228 235 238 241 245 246 252 258 263 267 268 275 280 285 292 302 308 314 321 327 327 294 259 255 248 244 240 239 247
227 227 225 225 226 227 224 223 222 222 228 224 222 221 223 225 233 237 239 243 246 251 256 260 264 267 273 275 280 289 300 305 311 317 324 315 306 279 251 252 252 250 246 252
224 224 222 223 223 224 224 223 222 223 226 226 224 223 221 223 230 234 237 241 245 250 255 260 262 263 266 272 279 290 297 301 309 312 321 320 314 291 268 260 259 259 261 259
224 224 221 220 221 222 223 223 222 222 218 220 221 219 217 221 229 232 236 239 242 246 251 256 255 258 264 271 280 288 292 300 303 308 317 317 315 293 269 258 257 257 257 261
223 221 220 219 221 221 222 222 221 222 215 221 221 219 214 218 225 229 232 234 240 245 248 250 253 258 264 271 278 284 289 296 299 304 311 313 308 288 275 268 259 251 253 257
221 219 218 218 220 220 219 218 221 222 219 219 217 217 217 218 224 225 226 228 235 239 241 246 251 255 262 269 275 281 287 293 297 297 306 309 308 297 268 260 264 261 264 263
218 219 218 216 217 216 217 215 216 217 216 212 213 215 216 216 224 226 229 231 233 236 238 242 246 253 261 271 276 278 281 289 291 293 300 303 307 298 283 261 270 269 263 265
215 216 215 213 214 214 213 213 213 216 215 211 210 209 212 217 221 223 227 232 236 241 242 247 253 261 265 268 269 275 281 282 282 287 294 297 300 299 284 269 266 263 276 277
211 212 212 210 211 213 209 212 211 214 214 210 210 211 211 215 220 223 225 228 232 236 240 245 249 256 261 265 271 275 275 276 279 283 291 294 297 298 284 264 262 267 273 277
208 209 209 209 209 208 207 207 208 211 213 213 211 212 210 212 218 222 226 231 232 237 241 243 248 253 256 260 264 269 268 272 278 279 287 289 291 297 281 269 266 267 270 274
204 205 206 206 206 205 204 204 206 207 210 211 210 211 210 212 215 219 225 231 233 234 236 242 246 251 255 259 261 261 266 268 274 282 285 286 287 296 291 278 274 271 268 270
200 201 202 203 201 200 200 202 202 205 206 209 208 209 208 211 213 219 224 229 232 234 237 240 241 245 247 251 254 255 262 269 273 277 285 283 286 292 291 278 270 276 276 273
194 195 196 197 197 196 197 199 199 198 203 207 208 208 210 211 213 218 221 227 230 232 234 239 243 248 252 255 257 260 265 271 268 275 274 280 289 289 284 277 275 278 286 286
185 185 188 189 190 191 193 195 196 196 200 201 204 207 211 212 213 217 223 228 227 230 235 239 242 246 251 254 253 257 263 258 262 268 275 277 279 281 280 280 281 280 281 283
178 180 182 182 183 187 190 193 196 195 193 198 201 204 208 211 213 218 223 225 228 230 232 235 237 238 242 246 251 254 258 257 259 264 268 267 268 273 271 276 282 281 284 285
176 174 175 177 179 181 184 185 189 190 190 194 198 202 206 211 214 218 222 224 226 230 231 234 238 241 243 245 248 250 252 254 257 261 267 264 266 272 267 271 280 284 288 288
171 169 172 179 176 178 181 184 182 182 188 190 193 197 202 206 212 219 223 226 227 229 233 236 240 243 245 245 246 249 254 255 256 258 265 263 272 280 272 270 273 280 283 286
164 164 172 175 175 178 179 176 175 177 180 185 190 196 200 203 207 213 223 225 228 231 234 236 239 242 246 247 247 249 252 253 251 254 259 268 270 277 282 280 279 280 280 279
158 161 167 172 173 174 173 168 168 171 176 180 185 189 197 203 208 214 222 225 227 229 231 233 237 241 244 246 244 244 247 251 254 263 265 267 272 273 278 281 277 278 280 282
157 159 162 167 170 172 170 166 167 167 172 175 180 182 182 177 177 190 202 210 214 212 212 220 219 219 229 237 245 253 257 257 258 258 261 261 263 266 272 279 283 285 284 285
149 151 148 150 155 160 162 161 162 164 165 166 165 169 166 159 167 191 192 194 191 189 194 208 207 223 237 250 260 262 265 260 257 256 257 262 267 269 276 280 285 286 284 286
137 135 134 136 141 149 156 156 158 160 162 167 168 171 170 183 185 193 194 190 210 204 203 218 224 240 240 235 239 243 254 261 264 265 269 273 273 273 278 283 287 285 284 285
134 135 138 142 146 152 157 160 161 166 171 172 178 181 185 190 192 198 200 208 210 208 219 237 234 233 237 240 243 251 257 260 262 265 270 281 282 283 284 287 289 287 284 285
146 147 145 153 156 160 164 168 171 174 178 182 186 191 192 196 200 200 201 204 213 217 215 223 229 237 240 243 245 250 255 259 264 268 273 277 280 287 287 286 286 286 287 287
162 161 161 167 172 174 178 180 184 186 188 187 192 195 197 201 201 203 204 210 216 218 225 230 232 234 242 244 246 251 258 261 264 266 273 278 290 289 284 284 285 286 287 287
128 176 175 184 194 184 199 205 195 202 199 201 200 199 201 205 207 209 213 219 222 224 227 228 233 239 242 248 251 256 263 266 267 267 268 283 286 285 284 286 287 288 287 287
Height
10228 10246 10263 10281 10297 10315 10331 10357 10382 10395 10394 10409 10455 10482 10498 10509 10510 10522 10532 10541 10547 10551 10555 10562 10564 10565 10565 10569 10567 10567 10567 10566 10565 10563 10562 10559 10557 10555 10556 10556 10557 10560 10562 10558
10204 10221 10237 10254 10267 10289 10314 10335 10360 10362 10370 10392 10447 10466 10480 10492 10494 10509 10521 10528 10535 10540 10545 10552 10553 10555 10557 10559 10558 10558 10561 10559 10559 10557 10556 10554 10551 10550 10551 10551 10552 10553 10556 10552
10183 10198 10213 10229 10246 10266 10289 10303 10319 10332 10355 10402 10424 10448 10466 10481 10484 10496 10508 10516 10523 10529 10534 10539 10542 10545 10547 10548 10548 10550 10552 10552 10552 10550 10551 10548 10544 10543 10543 10545 10546 10546 10547 10547
10162 10177 10192 10208 10226 10244 10258 10275 10298 10329 10358 10387 10418 10434 10452 10464 10469 10485 10494 10504 10512 10517 10522 10528 10531 10533 10535 10538 10538 10542 10544 10544 10544 10542 10541 10540 10538 10535 10534 10536 10537 10538 10536 10540
10145 10161 10175 10190 10206 10219 10233 10259 10289 10313 10355 10370 10379 10411 10440 10453 10454 10473 10486 10495 10498 10504 10511 10515 10517 10521 10524 10527 10530 10533 10534 10536 10535 10534 10534 10532 10529 10526 10525 10526 10526 10529 10529 10529
10131 10146 10161 10173 10185 10198 10226 10257 10279 10299 10336 10343 10366 10408 10424 10436 10439 10458 10471 10477 10481 10494 10497 10498 10503 10511 10514 10519 10522 10523 10525 10526 10526 10526 10526 10527 10521 10518 10519 10520 10521 10521 10521 10520
10119 10132 10146 10160 10178 10204 10222 10246 10263 10287 10312 10329 10370 10384 10405 10421 10428 10439 10450 10457 10471 10478 10477 10486 10492 10500 10504 10509 10513 10514 10516 10516 10517 10516 10517 10517 10512 10510 10511 10514 10515 10515 10514 10513
10109 10122 10137 10152 10167 10188 10206 10224 10241 10267 10295 10323 10339 10365 10384 10398 10407 10425 10435 10446 10453 10454 10464 10475 10482 10490 10496 10501 10504 10506 10506 10506 10508 10508 10508 10509 10503 10500 10504 10506 10506 10504 10505 10505
10101 10115 10127 10144 10160 10173 10191 10209 10232 10252 10273 10304 10323 10346 10366 10386 10396 10407 10424 10432 10434 10447 10457 10467 10478 10484 10489 10491 10492 10495 10497 10498 10499 10499 10500 10500 10494 10494 10494 10497 10496 10494 10499 10498
10095 10106 10119 10136 10149 10163 10183 10200 10220 10239 10261 10287 10307 10337 10357 10370 10383 10398 10402 10412 10420 10435 10449 10459 10467 10473 10478 10481 10483 10483 10486 10488 10491 10489 10491 10491 10487 10485 10487 10489 10483 10489 10489 10488
10089 10101 10114 10127 10142 10160 10176 10191 10209 10227 10251 10274 10297 10316 10343 10358 10369 10382 10392 10385 10414 10430 10439 10449 10458 10463 10467 10471 10474 10475 10475 10477 10479 10478 10481 10481 10477 10477 10477 10478 10478 10479 10480 10478
10086 10098 10112 10125 10140 10155 10170 10184 10200 10217 10237 10262 10284 10308 10330 10345 10351 10355 10370 10387 10401 10418 10425 10437 10444 10451 10455 10461 10463 10463 10463 10466 10468 10469 10469 10468 10467 10466 10467 10466 10468 10469 10469 10467
10087 10099 10111 10123 10136 10149 10163 10175 10191 10213 10236 10249 10269 10289 10304 10319 10337 10345 10365 10379 10392 10405 10415 10421 10427 10434 10442 10448 10451 10451 10453 10456 10460 10459 10457 10454 10455 10457 10457 10457 10456 10456 10457 10456
10087 10098 10108 10119 10131 10144 10157 10171 10186 10203 10219 10236 10253 10275 10297 10313 10329 10341 10357 10367 10381 10391 10400 10408 10418 10426 10430 10436 10438 10441 10444 10446 10449 10449 10444 10442 10445 10445 10445 10444 10444 10443 10443 10443
10088 10098 10106 10116 10128 10140 10151 10163 10177 10189 10201 10229 10249 10272 10286 10302 10318 10330 10344 10356 10369 10380 10390 10399 10407 10414 10419 10424 10426 10432 10434 10435 10436 10436 10433 10434 10433 10434 10433 10433 10433 10433 10431 10429
10087 10096 10106 10117 10128 10139 10151 10164 10178 10195 10213 10225 10241 10260 10274 10294 10309 10320 10336 10348 10361 10371 10379 10387 10394 10401 10406 10410 10419 10422 10423 10424 10424 10426 10424 10423 10423 10422 10422 10422 10421 10419 10418 10417
10088 10098 10107 10116 10126 10138 10151 10164 10175 10189 10206 10223 10239 10255 10274 10290 10303 10314 10329 10342 10354 10362 10368 10375 10384 10389 10393 10401 10410 10409 10409 10410 10412 10412 10412 10412 10411 10412 10413 10410 10408 10406 10404 10403
10093 10102 10109 10116 10128 10138 10146 10154 10170 10189 10202 10218 10237 10253 10268 10283 10298 10314 10326 10335 10343 10352 10360 10367 10374 10377 10382 10392 10398 10397 10397 10399 10401 10402 10401 10399 10399 10401 10399 10398 10396 10394 10392 10389
10099 10108 10114 10121 10130 10138 10151 10166 10178 10192 10213 10231 10243 10258 10273 10286 10298 10305 10313 10325 10332 10343 10352 10357 10360 10366 10375 10385 10384 10383 10383 10385 10386 10387 10389 10388 10388 10388 10386 10384 10382 10379 10376 10374
10103 10111 10121 10132 10139 10149 10160 10172 10188 10203 10217 10233 10249 10259 10271 10284 10294 10302 10310 10317 10325 10333 10340 10346 10351 10361 10365 10368 10372 10371 10368 10371 10374 10375 10375 10373 10373 10371 10370 10369 10366 10363 10359 10355
10115 10121 10128 10139 10150 10158 10168 10181 10195 10210 10223 10235 10245 10256 10268 10280 10289 10296 10301 10308 10315 10321 10328 10334 10342 10349 10353 10355 10357 10357 10357 10357 10358 10358 10357 10356 10356 10356 10355 10353 10350 10346 10341 10336
10128 10135 10144 10155 10165 10175 10184 10193 10205 10216 10227 10237 10247 10257 10265 10272 10282 10290 10297 10302 10308 10312 10319 10325 10334 10338 10342 10342 10344 10344 10341 10340 10339 10339 10341 10342 10343 10342 10340 10336 10332 10326 10320 10316
10143 10150 10160 10171 10182 10190 10193 10201 10212 10222 10232 10240 10251 10255 10260 10267 10274 10283 10289 10294 10302 10309 10313 10318 10325 10326 10327 10326 10326 10328 10326 10326 10328 10328 10329 10328 10326 10325 10322 10317 10312 10306 10300 10295
10158 10166 10173 10182 10187 10196 10205 10214 10220 10227 10235 10242 10248 10253 10260 10266 10271 10277 10283 10289 10295 10301 10307 10310 10310 10309 10308 10311 10314 10315 10314 10313 10312 10312 10313 10313 10310 10308 10302 10296 10290 10284 10278 10274
10168 10174 10181 10188 10195 10202 10208 10214 10221 10228 10234 10242 10248 10254 10258 10263 10267 10271 10276 10281 10285 10290 10293 10296 10298 10299 10301 10302 10301 10300 10299 10298 10298 10298 10299 10297 10294 10288 10281 10274 10268 10263 10258 10253
10181 10185 10187 10194 10200 10206 10210 10215 10222 10229 10234 10238 10242 10247 10253 10257 10261 10265 10268 10272 10276 10278 10278 10280 10284 10284 10284 10283 10283 10284 10284 10283 10284 10283 10281 10280 10271 10266 10260 10254 10248 10242 10236 10230
10191 10194 10200 10206 10209 10211 10218 10220 10223 10228 10233 10236 10240 10242 10246 10250 10254 10255 10259 10263 10265 10266 10267 10266 10266 10267 10269 10268 10268 10269 10270 10269 10267 10266 10263 10256 10250 10244 10238 10232 10227 10221 10215 10208